Location: Holmbach
(49.5093°N, 8.8411°E)
Time: 17:07:52
(UTC+00:00)

Meteor 1-16 Rocket - Pass Details

Date: 17 June 2025
Orbit: 790 x 904 km, 81.2° (Epoch: 13 July)

Event Time Altitude Azimuth Distance (km) Brightness Sun altitude
Rises 21:00:33 0° 348° (NNW) 3,475 8.8 -10.3°
Reaches altitude 10° 21:02:59 10° 350° (N) 2,547 7.9 -10.5°
Maximum altitude 21:08:49 78° 77° (ENE) 920 4.4 -11.0°
Enters shadow 21:13:58 14° 163° (SSE) 2,293 5.8 -11.4°
